Pickle Lake, Ontario

Past 24 Hour Conditions

Date / Time
(EST)
Conditions Temp
(°F)
Humidity
(%)
Dew Point
(°F)
Wind
(mph)
Pressure
(inches)
Visibility
(miles)
29 May 2015
17:00 N/A 49 85 45 N 9 gust 19 30.0 N/A
16:00 N/A 49 91 46 NNW 8 30.0 N/A
15:00 N/A 51 86 47 NNE 7 30.0 N/A
14:00 N/A 52   84 48 NNE 5 30.0 N/A
13:00 N/A 49 89 46 NNE 5 30.0 N/A
12:00 N/A 49 91 47 N 6 29.9 N/A
11:00 N/A 46 100 46 NNW 5 29.9 N/A
10:00 N/A 45 100 45 N 4 29.9 N/A
9:00 N/A 44   100 44 NNE 7 29.9 N/A
8:00 N/A 44   100 44 NNE 6 29.9 N/A
7:00 N/A 44   100 44 NE 3 29.9 N/A
6:00 N/A 44   100 44 NE 5 29.9 N/A
5:00 N/A 45 100 45 NE 4 29.9 N/A
4:00 N/A 45 100 45 NE 3 29.9 N/A
3:00 N/A 45 100 45 ENE 2 29.9 N/A
2:00 N/A 45 100 45 E 6 29.9 N/A
1:00 N/A 45 100 45 ESE 6 29.9 N/A
00:00 N/A 45 100 45 ESE 6 29.9 N/A
28 May 2015
23:00 N/A 44   100 44 ESE 6 29.9 N/A
22:00 N/A 44   100 44 E 8 29.9 N/A
21:00 N/A 44   100 44 E 9 29.9 N/A
20:00 N/A 44   99 44 ESE 9 30.0 N/A
19:00 N/A 44   99 44 E 8 30.0 N/A
18:00 N/A 45 97 44 ESE 10 30.0 N/A
17:00 N/A 47 91 44 SE 9 30.0 N/A
N/A Not available
↑ Highest temperature
↓ Lowest temperature

If you require additional historical weather information, please visit Climate Data Online.

What we are doing

Date modified: